Starlink 1090

operational
NORAD ID: 44968 Int'l Des: 2020-001 Owner: SPXS Country: US Constellation: starlink
LEOCIRCULARSTARLINK_TYPE

Über Starlink 1090

Beschreibung wird geladen...

Live-Position

3D-Globus wird geladen...

Nächste Überflüge

Höhenverlauf

Altitude vs Time

uPlot chart will show altitude changes over time

Zweizeiliger Elementsatz

1 44968U 20001BG 25312.54442911 .00003634 00000-0 26272-3 0 9995
2 44968 53.0548 130.4613 0002229 105.6309 254.4926 15.06406646322158
Epoch: 8. Nov. 2025 • Age: 25 hours

Aktueller Status

Höhe 547.4 km
Geschwindigkeit 7.59 km/s
Subsatellitenpunkt 29.10°N, 28.58°E
Startdatum 7. Jan. 2020
Alter 5.8 years
Typ internet

Technische Details

Klassifizierung Payload
Masse 260.00 kg
Trockenmasse 248.00 kg
Gesamtmasse 260.00 kg
Länge 0.20 m
Durchmesser 2.80 m
Spannweite 9.00 m
Form Box + pan
Hersteller SPXS
Bus-Typ Starlink
Phasenstatus In Orbit
Besitzer/Staat SPXS/US

Große Konstellationen

Loading constellations...